Benton Harbor, MI

10:47 PM EDT on March 24, 2017 (GMT -0400)
Southwest Michigan Regional

Weather History for KBEH - December, 2012

Change the Weather History Date:

Friday, December 21, 2012

  Actual Average Record
Temperature  
Mean Temperature 36 °F -  
Max Temperature 39 °F 35 °F 60 °F (1949)
Min Temperature 33 °F 21 °F -3 °F (1989)
Degree Days  
Heating Degree Days 29    
Moisture  
Dew Point 34 °F    
Average Humidity 92    
Maximum Humidity 96    
Minimum Humidity 87    
Precipitation  
Precipitation 0.19 in - - ()
Sea Level Pressure  
Sea Level Pressure 29.65 in    
Wind  
Wind Speed 19 mph (NW)    
Max Wind Speed 26 mph    
Max Gust Speed 51 mph    
Visibility 7 miles    
Events Rain , Snow    
Averages and records for this station are not official NWS values.
T = Trace of Precipitation, MM = Missing Value Source: NWS Daily Summary

Daily Weather History Graph

Daily Weather History Graph

Search for Another Location

Airport or City:

Trip Planner

Search our weather history database for the weather conditions in past years. The results will help you decide how hot, cold, wet, or windy it might be!

Date:

Astronomy

Dec. 21, 2012 Rise Set
Actual Time 8:11 AM EST 5:17 PM EST
Civil Twilight 7:39 AM EST 5:49 PM EST
Nautical Twilight 7:03 AM EST 6:24 PM EST
Astronomical Twilight 6:29 AM EST 6:58 PM EST
Moon 1:07 PM EST (12/21) 1:52 AM EST (12/21)
Length of Visible Light 10h 09m
Length of Day
9h 06m
Waxing Gibbous, 64% of the Moon is Illuminated
Dec 21
Waxing Gibbous
Dec 28
Full
Jan 4
Last Quarter
Jan 11
New
Jan 18
First Quarter

Hourly Weather History & Observations

Time (EST) Temp. Windchill Dew Point Humidity Pressure Visibility Wind Dir Wind Speed Gust Speed Precip Events Conditions
12:53 AM 39.9 °F 31.1 °F 37.0 °F 89% 29.16 in 10.0 mi NW 17.3 mph 38.0 mph 0.01 in   Overcast
1:45 AM 37.4 °F 26.9 °F 35.6 °F 93% 29.24 in 4.0 mi NNW 20.7 mph 39.1 mph 0.03 in Rain Light Rain
1:53 AM 37.9 °F 27.9 °F 36.0 °F 93% 29.26 in 7.0 mi NNW 19.6 mph 40.3 mph 0.03 in Rain Light Rain
3:24 AM 35.6 °F 27.5 °F 33.8 °F 93% 29.37 in 5.0 mi NNW 11.5 mph 35.7 mph 0.06 in Snow Light Snow
3:43 AM 35.6 °F 25.5 °F 33.8 °F 93% 29.39 in 4.0 mi NNW 17.3 mph 44.9 mph 0.07 in Snow Light Snow
3:53 AM 36.0 °F 25.0 °F 33.1 °F 89% 29.41 in 5.0 mi NNW 20.7 mph 43.7 mph 0.08 in Snow Light Snow
4:18 AM 35.6 °F 24.2 °F 33.8 °F 93% 29.42 in 2.5 mi NW 21.9 mph 42.6 mph 0.01 in Snow Light Snow
4:25 AM 35.6 °F 25.5 °F 33.8 °F 93% 29.43 in 4.0 mi NNW 17.3 mph 42.6 mph 0.02 in Snow Light Snow
4:53 AM 34.0 °F 23.0 °F 33.1 °F 96% 29.46 in 2.5 mi NNW 18.4 mph 36.8 mph 0.03 in Snow Light Snow
4:59 AM 35.6 °F 24.8 °F 33.8 °F 93% 29.46 in 3.0 mi NNW 19.6 mph 36.8 mph 0.00 in Snow Light Snow
5:06 AM 35.6 °F 25.5 °F 33.8 °F 93% 29.45 in 2.5 mi NNW 17.3 mph 36.8 mph 0.01 in Snow Light Snow
5:14 AM 35.6 °F 25.2 °F 33.8 °F 93% 29.47 in 3.0 mi NNW 18.4 mph 34.5 mph 0.02 in Snow Light Snow
5:27 AM 35.6 °F 26.2 °F 33.8 °F 93% 29.48 in 2.5 mi NW 15.0 mph 44.9 mph 0.02 in Snow Light Snow
5:50 AM 35.6 °F 24.0 °F 33.8 °F 93% 29.49 in 4.0 mi NW 23.0 mph 40.3 mph 0.04 in Snow Light Snow
5:53 AM 35.1 °F 23.5 °F 33.1 °F 92% 29.50 in 4.0 mi NW 21.9 mph 40.3 mph 0.04 in Snow Light Snow
6:21 AM 35.6 °F 24.0 °F 33.8 °F 93% 29.52 in 3.0 mi NW 23.0 mph 40.3 mph 0.01 in Snow Light Snow
6:40 AM 35.6 °F 24.2 °F 32.0 °F 87% 29.53 in 3.0 mi NW 21.9 mph 44.9 mph 0.01 in Snow Light Snow
6:50 AM 35.6 °F 23.2 °F - N/A% 29.53 in 4.0 mi NW 26.5 mph 47.2 mph 0.01 in Snow Light Snow
7:53 AM 36.0 °F 25.0 °F - N/A% 29.59 in 10.0 mi NW 20.7 mph 46.0 mph 0.00 in   Overcast
8:10 AM 35.6 °F 23.2 °F - N/A% 29.59 in 10.0 mi NW 26.5 mph 50.6 mph N/A   Overcast
8:53 AM 36.0 °F 24.2 °F - N/A% 29.64 in 10.0 mi NW 24.2 mph 46.0 mph N/A   Overcast
9:53 AM 35.1 °F 22.5 °F - N/A% 29.68 in 10.0 mi NW 26.5 mph 42.6 mph N/A   Overcast
10:08 AM 35.6 °F 25.2 °F - N/A% 29.67 in 10.0 mi NW 18.4 mph 36.8 mph N/A   Overcast
10:22 AM 35.6 °F 25.2 °F - N/A% 29.69 in 10.0 mi NW 18.4 mph 38.0 mph N/A   Overcast
10:40 AM 35.6 °F 25.2 °F - N/A% 29.70 in 9.0 mi NW 18.4 mph 42.6 mph N/A   Overcast
10:53 AM 35.1 °F 23.8 °F - N/A% 29.73 in 10.0 mi NW 20.7 mph 39.1 mph N/A   Overcast
11:53 AM 36.0 °F 25.0 °F - N/A% 29.75 in 10.0 mi NNW 20.7 mph 49.5 mph N/A   Overcast
12:53 PM 35.1 °F 24.5 °F - N/A% 29.78 in 10.0 mi NNW 18.4 mph 36.8 mph N/A   Overcast
1:53 PM 35.1 °F 24.5 °F - N/A% 29.81 in 10.0 mi NNW 18.4 mph 39.1 mph N/A   Overcast
2:53 PM 35.1 °F 24.5 °F - N/A% 29.83 in 10.0 mi NW 18.4 mph 32.2 mph N/A   Overcast
3:53 PM 35.1 °F 25.9 °F - N/A% 29.88 in 10.0 mi NNW 13.8 mph 31.1 mph N/A   Overcast
4:53 PM 35.1 °F 24.8 °F - N/A% 29.92 in 10.0 mi NW 17.3 mph 34.5 mph N/A   Overcast
5:53 PM 35.1 °F 26.4 °F - N/A% 29.98 in 10.0 mi NNW 12.7 mph 35.7 mph N/A   Overcast
6:53 PM 35.1 °F 24.5 °F - N/A% 30.01 in 10.0 mi NNW 18.4 mph 31.1 mph N/A   Overcast
7:53 PM 34.0 °F 24.6 °F - N/A% 30.03 in 10.0 mi NNW 13.8 mph 28.8 mph N/A   Overcast
8:53 PM 34.0 °F 25.0 °F - N/A% 30.06 in 10.0 mi NW 12.7 mph 25.3 mph N/A   Overcast
9:53 PM 34.0 °F 25.5 °F - N/A% 30.08 in 10.0 mi NNW 11.5 mph 21.9 mph N/A   Overcast
10:53 PM 33.1 °F 23.4 °F - N/A% 30.08 in 10.0 mi NW 13.8 mph 26.5 mph N/A   Overcast
11:53 PM 33.1 °F 25.5 °F - N/A% 30.09 in 10.0 mi NW 9.2 mph 19.6 mph N/A   Overcast